Location: Ch�risy
(50.2331°N, 2.9131°E)
Time: 19:57:11
(UTC+00:00)

Cosmos 1892 Rocket - Pass Details

Date: 17 January 2021
Orbit: 607 x 632 km, 82.5° (Epoch: 27 February)

Event Time Altitude Azimuth Distance (km) Brightness Sun altitude
Rises 17:39:03 0° 164° (SSE) 2,868 7.0 -12.7°
Reaches altitude 10° 17:41:24 10° 155° (SSE) 1,965 6.0 -13.0°
Maximum altitude 17:45:18 33° 91° (E) 1,028 4.2 -13.6°
Enters shadow 17:48:32 14° 31° (NNE) 1,729 5.4 -14.1°
